CAPE
270 260 16 42 20 9 1 2 0 0 0 0 0 0 0 0 0 1 25 36 20 58 542 819 690 689 655 754 559 354 190 112 48 24 17 15 11 4 1 3 3 3 2 0 0 0 0 0 0
240 79 13 17 18 5 0 0 0 0 0 0 0 0 0 0 0 9 42 48 47 202 767 649 612 636 652 585 384 285 139 43 23 20 13 7 4 0 5 3 1 4 2 0 0 0 0 0 0
219 106 57 19 7 0 2 0 0 0 0 0 1 43 19 0 5 0 16 145 107 274 811 769 674 633 558 495 334 197 88 2 16 13 9 6 3 3 1 3 3 3 0 0 0 0 0 0 0
98 69 37 30 0 0 0 0 0 0 0 0 0 0 23 30 11 13 12 81 147 164 595 747 687 633 539 416 320 161 6 6 16 13 4 5 2 4 1 3 2 1 0 0 0 0 0 0 0
64 53 21 12 0 0 0 0 0 0 0 0 0 0 0 0 5 17 34 49 234 255 647 608 641 582 485 340 243 99 1 10 6 3 6 4 5 4 2 3 2 0 0 0 0 0 0 0 0
115 47 5 4 0 0 0 0 0 0 0 0 5 0 0 0 4 2 45 50 281 383 631 737 621 545 404 347 190 15 1 6 3 6 4 6 6 3 2 2 2 0 0 0 0 0 0 0 0
33 20 4 0 1 0 0 0 0 0 0 0 1 3 2 0 0 0 0 36 153 482 647 694 591 461 366 271 101 0 3 3 5 2 4 6 5 2 2 2 1 0 0 0 0 0 0 0 0
69 22 13 7 2 0 0 0 0 0 0 0 0 0 0 0 23 39 0 0 28 488 659 635 403 315 267 150 7 0 1 0 3 3 3 4 3 3 2 2 0 0 0 0 0 0 0 0 0
71 51 5 0 1 2 1 0 0 0 0 0 0 0 4 8 37 53 25 0 144 372 533 481 294 263 144 28 0 0 0 0 3 2 0 2 0 0 0 0 0 0 0 0 0 0 0 0 0
130 27 0 0 4 6 1 0 0 0 0 0 0 0 2 0 16 9 10 14 58 289 367 330 268 115 21 0 0 0 0 0 0 0 0 0 0 0 0 0 0 0 0 0 0 0 0 0 0
4 6 0 0 0 10 2 0 0 0 0 0 0 0 6 0 8 25 2 12 17 164 267 238 77 15 0 0 0 0 0 0 0 0 0 0 0 0 0 0 0 0 0 0 0 0 0 0 0
23 0 4 0 0 0 0 0 0 1 1 0 0 1 0 0 5 48 66 28 100 52 93 94 12 4 0 0 0 0 0 0 0 0 0 0 0 0 0 0 0 0 0 0 0 0 0 0 0
9 3 7 17 6 20 15 0 0 0 0 0 0 5 1 0 16 30 60 58 78 18 56 13 6 0 0 0 0 0 0 0 0 0 0 0 0 0 0 0 0 0 0 0 0 0 0 0 0
0 0 3 9 2 25 6 1 5 0 0 0 2 2 27 23 49 73 35 44 39 65 3 21 2 1 0 0 0 0 0 0 0 0 0 0 0 0 0 0 0 0 0 0 0 0 0 0 0
0 2 1 0 0 6 6 15 0 0 0 0 0 0 11 11 31 18 16 0 46 5 20 0 3 2 0 0 0 0 0 0 0 0 0 0 0 0 0 0 0 0 0 0 0 0 0 0 0
0 1 1 0 0 0 7 1 7 0 8 0 0 0 0 6 11 12 0 30 7 2 4 28 1 3 2 1 0 0 0 0 0 0 0 0 0 0 0 0 0 0 0 0 0 0 0 0 0
2 0 0 1 0 4 4 1 0 3 2 1 0 0 0 0 6 0 0 0 16 0 1 7 12 2 2 0 0 0 0 0 0 0 0 0 0 0 0 0 0 0 0 0 0 0 0 0 0
0 0 0 0 0 19 9 4 0 1 0 0 0 0 0 0 0 0 0 0 2 5 4 0 5 2 1 1 0 0 0 0 0 0 0 0 0 0 0 0 0 0 0 0 0 0 0 0 0
0 8 0 0 0 3 13 6 2 0 6 1 0 0 0 0 0 0 0 0 0 0 0 17 8 1 2 1 0 0 0 0 0 0 0 0 0 0 0 0 0 0 0 0 0 0 0 0 0
0 0 2 0 6 7 8 1 1 2 0 0 0 0 0 0 0 0 0 0 0 0 0 0 2 1 1 0 0 0 0 0 0 0 0 0 0 0 0 0 0 0 0 0 0 0 0 0 0
0 0 0 0 0 29 14 8 8 0 3 0 0 0 0 0 0 0 0 0 0 0 0 1 3 6 0 0 0 0 0 0 0 0 0 0 0 0 0 0 0 0 0 0 0 0 0 0 0
0 0 0 0 7 7 19 3 0 0 0 0 0 0 0 0 0 0 0 0 0 0 0 9 15 5 0 0 0 0 0 0 0 0 0 0 0 0 0 0 0 0 0 0 0 0 0 0 0
0 0 0 0 0 14 1 2 0 0 1 0 0 0 0 0 0 0 0 0 0 0 0 40 45 35 6 0 0 0 0 0 0 0 0 0 0 0 0 0 0 0 0 0 0 0 0 0 0
4 19 3 0 2 13 0 4 0 0 0 0 0 0 0 0 0 0 0 0 0 0 3 17 49 51 15 0 0 0 0 0 0 0 0 0 0 0 0 0 0 0 0 0 0 0 0 0 0
0 0 2 0 16 3 0 0 0 0 0 0 0 0 0 0 0 0 0 0 0 4 6 15 31 32 17 0 0 0 0 0 0 0 0 0 0 0 0 0 0 0 0 0 0 0 0 0 0
0 0 0 0 13 3 0 1 0 1 0 0 0 0 0 0 0 0 0 0 0 0 0 1 27 20 35 0 0 0 0 0 0 0 0 0 0 0 0 0 0 0 0 0 0 0 0 0 0
11 1 0 0 0 0 5 0 0 0 0 0 0 0 0 0 0 0 0 0 0 2 31 0 1 15 26 19 0 0 0 0 0 0 0 0 0 0 0 0 0 0 0 0 0 0 0 0 0
0 0 0 0 0 0 0 0 0 0 1 0 0 0 0 0 0 0 0 0 0 0 0 53 25 7 13 2 1 0 0 0 0 0 0 0 0 0 0 0 0 0 0 0 0 0 0 0 0
0 0 0 0 0 0 0 0 0 0 0 0 0 0 0 0 0 0 0 0 0 0 0 0 0 20 22 12 1 0 0 0 0 0 0 0 0 0 0 0 0 0 0 0 0 0 0 0 0
0 0 1 0 0 0 0 0 0 0 0 0 0 0 0 0 0 0 0 0 0 0 0 0 0 0 3 12 25 0 0 0 0 0 0 0 0 0 0 0 0 0 0 0 0 0 0 0 0
CIN
-0 -6 -95 -18 -0 -0 -1 -2 -0 -0 -0 -0 -0 -0 -0 -0 -0 -0 -163 -194 -224 -194 -21 -0 -2 -1 -1 -0 -0 -0 -15 -51 -59 -0 -0 -0 -0 -0 -0 -0 -0 -0 -0 -0 -0 -0 -0 -0 -0
-0 -42 -67 -19 -1 -0 -0 -0 -0 -0 -0 -0 -0 -0 -0 -0 -0 -47 -72 -125 -125 -83 -0 -7 -4 -3 -0 -0 -13 -0 -8 -85 -0 -0 -0 -0 -0 -0 -0 -0 -0 -0 -0 -0 -0 -0 -0 -0 -0
-6 -29 -2 -5 -0 -0 -1 -0 -0 -0 -0 -0 -0 -60 -24 -2 -69 -36 -178 -72 -106 -28 -0 -0 -1 -1 -1 -0 -1 -0 -26 -5 -2 -0 -0 -0 -0 -0 -0 -0 -0 -0 -0 -0 -0 -0 -0 -0 -0
-0 -1 -4 -0 -0 -0 -0 -0 -0 -0 -0 -0 -0 -0 -61 -106 -85 -128 -173 -108 -72 -29 -4 -0 -2 -1 -0 -0 -2 -11 -5 -7 -0 -0 -0 -0 -0 -0 -0 -0 -0 -0 -0 -0 -0 -0 -0 -0 -0
-5 -4 -0 -0 -0 -0 -0 -0 -0 -0 -0 -0 -0 -0 -0 -0 -124 -168 -140 -116 -50 -41 -6 -12 -3 -7 -0 -2 -1 -27 -4 -2 -0 -0 -0 -0 -0 -0 -0 -0 -0 -0 -0 -0 -0 -0 -0 -0 -0
-0 -2 -0 -0 -0 -0 -0 -0 -0 -0 -0 -0 -54 -0 -0 -0 -60 -50 -104 -124 -43 -34 -8 -0 -2 -1 -0 -0 -8 -16 -3 -0 -0 -0 -0 -0 -0 -0 -0 -0 -0 -0 -0 -0 -0 -0 -0 -0 -0
-1 -7 -0 -0 -1 -0 -0 -0 -0 -0 -0 -0 -1 -4 -6 -0 -13 -0 -0 -104 -69 -8 -2 -0 -0 -3 -1 -0 -29 -0 -1 -0 -0 -0 -0 -0 -0 -0 -0 -0 -0 -0 -0 -0 -0 -0 -0 -0 -0
-1 -6 -0 -0 -0 -0 -0 -0 -0 -0 -0 -0 -3 -0 -0 -0 -165 -172 -7 -0 -85 -2 -0 -0 -4 -8 -0 -0 -37 -0 -1 -0 -0 -1 -1 -1 -0 -0 -0 -0 -0 -0 -0 -0 -0 -0 -0 -0 -0
-3 -11 -0 -0 -0 -0 -0 -0 -0 -0 -0 -0 -3 -0 -53 -122 -122 -111 -146 -36 -3 -1 -0 -0 -4 -0 -0 -42 -0 -0 -3 -0 -2 -2 -0 -0 -0 -0 -0 -0 -0 -0 -0 -0 -0 -0 -0 -0 -0
-0 -3 -0 -0 -1 -1 -3 -0 -0 -0 -0 -0 -0 -0 -82 -0 -94 -96 -64 -85 -50 -0 -0 -0 -0 -3 -60 -0 -0 -0 -0 -0 -0 -0 -0 -0 -0 -0 -0 -0 -0 -0 -0 -0 -0 -0 -0 -0 -0
-5 -4 -0 -6 -0 -1 -9 -0 -0 -0 -0 -0 -0 -0 -143 -3 -62 -37 -16 -109 -50 -17 -0 -0 -4 -69 -3 -0 -0 -0 -0 -0 -0 -0 -0 -0 -0 -0 -0 -0 -0 -0 -0 -0 -0 -0 -0 -0 -0
-3 -0 -0 -0 -0 -0 -0 -0 -0 -10 -4 -0 -10 -21 -6 -0 -50 -25 -21 -51 -53 -35 -0 -6 -57 -90 -0 -0 -0 -0 -0 -0 -0 -0 -0 -0 -0 -0 -0 -0 -0 -0 -0 -0 -0 -0 -0 -0 -0
-8 -2 -1 -1 -1 -2 -16 -0 -0 -5 -0 -0 -3 -46 -32 -0 -64 -54 -47 -66 -49 -59 -23 -60 -88 -0 -0 -0 -0 -0 -0 -0 -0 -0 -0 -0 -0 -0 -0 -0 -0 -0 -0 -0 -0 -0 -0 -0 -0
-1 -4 -2 -4 -1 -0 -0 -4 -7 -0 -0 -0 -67 -31 -89 -105 -102 -70 -48 -67 -41 -27 -5 -32 -0 -0 -0 -0 -0 -0 -0 -0 -0 -0 -0 -0 -0 -0 -0 -0 -0 -0 -0 -0 -0 -0 -0 -0 -0
-0 -0 -0 -0 -0 -1 -1 -0 -0 -0 -0 -0 -0 -5 -100 -117 -123 -113 -131 -9 -66 -69 -29 -0 -0 -0 -0 -0 -0 -0 -0 -0 -0 -0 -0 -0 -0 -0 -0 -0 -0 -0 -0 -0 -0 -0 -0 -0 -0
-0 -0 -0 -0 -3 -0 -0 -0 -1 -1 -27 -0 -0 -30 -54 -136 -147 -152 -0 -108 -64 -121 -74 -13 -3 -0 -0 -0 -0 -0 -0 -0 -0 -0 -0 -0 -0 -0 -0 -0 -0 -0 -0 -0 -0 -0 -0 -0 -0
-0 -0 -0 -0 -0 -1 -0 -0 -0 -14 -10 -17 -0 -0 -0 -0 -174 -0 -0 -0 -69 -0 -71 -21 -32 -0 -0 -0 -0 -0 -0 -0 -0 -0 -0 -0 -0 -0 -0 -0 -0 -0 -0 -0 -0 -0 -0 -0 -0
-0 -0 -1 -0 -0 -0 -0 -0 -0 -8 -0 -0 -0 -0 -0 -0 -0 -0 -0 -0 -18 -96 -9 -0 -18 -0 -0 -0 -0 -0 -0 -0 -0 -0 -0 -0 -0 -0 -0 -0 -0 -0 -0 -0 -0 -0 -0 -0 -0
-0 -1 -0 -0 -0 -0 -0 -0 -0 -1 -6 -7 -0 -0 -0 -0 -0 -0 -0 -0 -0 -0 -0 -0 -0 -0 -0 -0 -0 -0 -0 -0 -0 -0 -0 -0 -0 -0 -0 -0 -0 -0 -0 -0 -0 -0 -0 -0 -0
-0 -0 -7 -0 -4 -0 -0 -0 -0 -2 -1 -0 -0 -0 -0 -0 -0 -0 -0 -0 -0 -0 -0 -0 -8 -22 -0 -0 -0 -0 -0 -0 -0 -0 -0 -0 -0 -0 -0 -0 -0 -0 -0 -0 -0 -0 -0 -0 -0
-0 -0 -0 -0 -0 -0 -2 -1 -0 -0 -4 -0 -0 -0 -0 -0 -0 -0 -0 -0 -0 -0 -0 -0 -100 -23 -0 -0 -0 -0 -0 -0 -0 -0 -0 -0 -0 -0 -0 -0 -0 -0 -0 -0 -0 -0 -0 -0 -0
-0 -0 -0 -0 -7 -1 -1 -1 -0 -0 -0 -0 -0 -0 -0 -0 -0 -0 -0 -0 -0 -0 -0 -101 -84 -39 -0 -0 -0 -0 -0 -0 -0 -0 -0 -0 -0 -0 -0 -0 -0 -0 -0 -0 -0 -0 -0 -0 -0
-0 -0 -0 -0 -0 -1 -0 -0 -0 -0 -0 -0 -0 -0 -0 -0 -0 -0 -0 -0 -0 -0 -0 -75 -54 -49 -99 -0 -0 -0 -0 -0 -0 -0 -0 -0 -0 -0 -0 -0 -0 -0 -0 -0 -0 -0 -0 -0 -0
-21 -4 -3 -2 -3 -1 -0 -17 -0 -0 -0 -0 -0 -0 -0 -0 -0 -0 -0 -0 -0 -0 -107 -78 -39 -2 -19 -0 -0 -0 -0 -0 -0 -0 -0 -0 -0 -0 -0 -0 -0 -0 -0 -0 -0 -0 -0 -0 -0
-0 -0 -3 -0 -44 -1 -0 -1 -0 -0 -0 -0 -0 -0 -0 -0 -0 -0 -0 -0 -0 -141 -68 -41 -32 -26 -11 -0 -0 -0 -0 -0 -0 -0 -0 -0 -0 -0 -0 -0 -0 -0 -0 -0 -0 -0 -0 -0 -0
-0 -0 -0 -8 -11 -4 -41 -3 -0 -0 -0 -0 -0 -0 -0 -0 -0 -0 -0 -0 -0 -0 -5 -6 -44 -47 -19 -0 -0 -0 -0 -0 -0 -0 -0 -0 -0 -0 -0 -0 -0 -0 -0 -0 -0 -0 -0 -0 -0
-13 -0 -0 -0 -0 -0 -15 -0 -0 -0 -0 -0 -0 -0 -0 -0 -0 -0 -0 -0 -0 -65 -127 -18 -23 -69 -36 -36 -0 -0 -0 -0 -0 -0 -0 -0 -0 -0 -0 -0 -0 -0 -0 -0 -0 -0 -0 -0 -0
-0 -0 -0 -0 -0 -0 -0 -0 -0 -0 -0 -0 -0 -0 -0 -0 -0 -0 -0 -0 -0 -0 -0 -89 -167 -139 -118 -82 -74 -0 -0 -0 -0 -0 -0 -0 -0 -0 -0 -0 -0 -0 -0 -0 -0 -0 -0 -0 -0
-0 -0 -0 -0 -0 -0 -0 -0 -0 -0 -0 -0 -0 -0 -0 -0 -0 -0 -0 -0 -0 -0 -0 -0 -0 -119 -146 -167 -110 -0 -0 -0 -0 -0 -0 -0 -0 -0 -0 -0 -0 -0 -0 -0 -0 -0 -0 -0 -0
-0 -0 -0 -0 -0 -0 -0 -0 -0 -0 -0 -0 -0 -0 -0 -0 -0 -0 -0 -0 -0 -0 -0 -0 -0 -0 -89 -127 -152 -0 -0 -0 -0 -0 -0 -0 -0 -0 -0 -0 -0 -0 -0 -0 -0 -0 -0 -0 -0
Wind_Speed
19 16 15 17 23 29 41 34 22 22 28 27 27 27 32 31 30 30 21 18 12 13 19 18 16 15 15 13 12 11 10 8 7 7 7 6 6 4 5 6 8 10 11 12 13 14 16 19 21
20 19 19 21 34 38 44 26 24 22 20 20 30 34 34 38 30 27 18 18 13 15 17 19 18 16 16 15 14 12 11 9 7 6 6 5 5 3 5 5 7 10 10 10 13 14 17 19 20
23 24 24 29 40 43 36 25 27 26 26 26 29 30 35 33 30 30 23 19 14 18 17 19 20 18 17 16 15 13 11 9 7 7 7 5 4 2 2 4 7 9 9 10 11 13 16 19 19
22 24 29 41 45 41 37 27 25 26 27 25 30 38 36 32 27 26 26 23 15 18 22 21 21 20 18 17 16 14 11 9 8 7 6 5 4 2 2 4 7 9 9 10 11 13 14 18 18
24 26 39 48 44 48 36 32 28 27 24 23 24 42 41 33 26 26 28 27 24 17 21 21 21 21 21 18 17 14 12 10 9 6 5 4 4 3 3 4 6 8 9 9 11 13 15 17 17
32 33 40 49 46 47 41 29 30 31 26 25 23 35 42 34 31 28 30 30 29 22 21 21 23 23 22 19 18 15 13 11 9 6 5 5 5 4 4 6 6 7 8 9 11 12 15 16 16
40 38 48 50 54 53 38 29 32 29 27 24 22 34 39 38 34 33 34 33 33 28 22 26 23 24 22 21 18 16 14 12 10 7 6 6 6 5 5 6 6 6 8 9 9 12 14 15 16
40 43 52 61 63 67 35 30 31 30 29 30 25 30 41 39 32 36 32 38 40 31 26 30 25 26 23 21 19 17 15 13 10 8 7 7 6 5 5 7 7 6 7 8 9 11 13 13 14
41 44 59 71 53 52 35 35 32 34 33 26 25 23 27 29 30 35 32 31 44 34 30 31 27 27 25 22 20 18 16 13 12 9 8 8 9 6 5 5 6 6 7 8 9 9 11 12 13
43 56 55 64 53 45 48 36 30 28 26 26 28 27 23 24 34 39 39 38 36 30 31 32 29 28 26 24 22 19 17 14 13 12 10 10 10 7 6 5 6 6 7 8 9 9 9 10 12
60 58 62 43 56 47 42 38 35 31 29 27 22 28 27 30 35 36 42 39 36 32 32 33 30 30 28 26 24 21 19 17 14 12 12 11 11 9 7 6 4 4 3 3 5 6 8 9 11
61 65 59 58 54 37 42 37 34 31 30 26 22 24 29 33 31 28 37 41 39 35 39 35 31 30 30 27 26 23 21 18 16 15 13 13 13 11 9 7 5 4 2 3 5 6 7 8 10
59 74 61 53 56 54 40 46 47 44 34 25 19 17 25 30 38 25 29 38 38 41 36 30 33 30 32 30 27 26 22 21 18 16 16 16 14 13 11 8 7 4 2 2 4 6 7 8 10
53 59 70 61 60 46 50 51 41 42 35 29 23 20 25 25 26 28 28 33 36 38 24 28 24 30 31 31 29 27 25 23 19 18 18 18 16 14 13 10 8 6 3 1 3 5 6 9 9
58 64 59 69 68 58 44 54 61 35 34 33 27 27 24 25 26 21 31 31 33 33 27 30 30 27 29 31 29 26 25 25 20 20 20 20 18 16 14 12 10 7 5 2 1 2 6 7 8
56 63 72 68 62 66 50 61 66 43 35 33 31 29 31 26 24 23 25 29 27 31 32 29 30 25 26 29 28 25 24 26 22 22 22 21 20 18 16 14 12 9 7 4 1 1 3 5 7
52 65 79 68 57 62 55 59 45 40 42 37 36 31 32 30 28 25 23 24 24 26 29 30 29 28 27 28 27 25 24 27 25 23 23 23 22 21 19 17 14 11 8 5 4 3 3 4 6
57 66 68 76 63 57 62 54 43 50 43 40 38 35 35 34 30 26 24 22 22 21 26 28 31 29 29 30 27 25 25 28 26 25 25 23 23 22 20 19 16 14 10 8 7 5 7 5 5
50 54 67 67 61 56 59 68 48 40 48 48 41 39 38 36 28 26 24 22 25 22 23 28 30 31 30 30 28 27 28 30 28 27 26 24 24 23 22 21 19 16 13 10 7 7 5 7 5
57 57 54 65 53 55 56 62 64 47 42 42 42 41 39 37 33 29 26 22 23 24 24 27 28 28 33 33 30 29 27 34 28 26 26 25 24 25 24 22 20 18 15 12 11 8 9 12 4
56 57 61 47 57 54 52 61 57 58 46 40 45 45 42 37 34 33 27 22 22 21 24 26 28 32 30 32 28 25 26 28 32 33 29 28 26 25 24 24 23 21 18 15 13 10 12 10 11
52 50 52 54 52 66 54 58 56 57 62 54 45 47 45 41 36 31 29 26 23 20 24 24 27 32 31 30 28 28 28 29 36 33 29 29 27 26 26 25 25 23 21 18 15 13 13 12 10
47 47 50 56 52 56 49 56 43 45 46 55 53 49 47 41 37 35 30 26 23 21 22 25 26 31 30 30 28 29 30 33 31 33 31 30 31 28 28 27 26 25 23 21 17 15 15 14 12
25 29 41 46 52 69 51 46 52 52 50 40 49 51 48 41 37 35 30 26 25 23 21 28 27 32 33 30 28 30 29 27 27 32 35 33 30 30 29 27 27 26 24 22 20 18 17 15 15
41 27 42 50 50 64 64 48 29 36 40 41 43 41 36 36 35 32 30 28 25 22 17 26 32 33 33 30 28 30 32 31 31 32 32 33 32 33 30 27 27 27 25 25 23 21 19 17 16
40 35 36 45 46 53 51 57 35 21 19 21 22 21 23 24 24 26 29 30 28 26 19 21 37 35 33 32 27 24 25 31 35 33 33 33 35 33 32 30 29 29 27 26 24 24 21 19 18
32 39 36 31 30 46 49 38 18 19 18 15 18 18 20 21 22 24 25 26 30 37 26 21 21 34 36 32 27 26 26 29 31 30 34 34 33 35 32 30 29 28 27 26 25 24 23 20 19
23 28 29 29 36 44 42 44 45 29 24 20 17 17 19 20 21 21 22 25 27 30 35 29 19 26 32 33 33 32 31 31 30 28 31 36 35 34 32 31 30 29 28 28 26 27 24 22 21
24 22 23 25 25 39 48 50 29 27 24 22 17 18 19 19 21 22 22 23 25 26 27 30 31 28 32 32 33 32 31 30 31 32 34 35 33 33 33 33 32 31 30 29 28 27 25 23 21
16 22 21 21 24 25 37 46 26 26 23 22 21 19 19 20 20 21 22 23 23 24 26 27 28 29 28 30 34 34 32 31 32 36 37 36 35 34 31 32 34 33 32 30 29 27 26 24 22
Wind_Direction
251 260 260 261 264 268 263 265 270 268 262 261 258 252 250 243 242 247 273 253 246 215 215 207 193 193 192 182 176 167 154 149 142 127 113 101 86 83 75 62 55 49 43 41 41 44 55 64 67
250 253 259 264 256 260 260 261 255 259 268 272 257 253 253 247 247 253 267 259 247 217 214 206 198 191 189 182 173 168 161 151 150 135 118 109 95 97 83 57 51 49 40 38 47 51 61 71 66
249 249 249 259 255 230 260 265 263 263 265 267 260 255 251 252 248 247 259 255 243 222 213 207 200 194 190 185 176 170 170 158 152 133 121 119 111 125 81 60 57 54 47 46 44 54 65 72 66
244 249 257 252 250 256 258 267 266 267 268 264 260 256 253 251 247 246 245 245 231 220 217 210 201 200 193 186 179 172 175 165 156 138 131 128 136 149 96 68 65 63 57 57 56 58 62 70 66
244 248 249 252 245 256 262 259 264 265 268 262 257 252 250 246 251 252 241 238 231 218 217 206 204 201 196 187 183 177 177 173 165 151 144 141 157 161 108 81 71 69 64 59 61 65 69 69 66
242 243 250 246 252 256 258 259 258 261 267 268 261 257 250 251 244 244 235 236 236 225 214 211 204 200 196 190 188 184 183 180 177 169 162 169 164 157 118 96 83 75 68 65 65 68 70 68 65
236 240 244 254 255 253 254 252 253 258 260 256 268 258 250 243 238 234 237 240 240 228 213 212 205 204 197 193 189 187 189 183 193 184 179 181 178 157 127 108 94 81 76 71 66 70 71 69 64
243 244 250 250 248 236 254 252 253 255 261 261 255 262 245 243 241 237 235 238 241 230 214 213 208 205 199 198 193 190 193 187 192 188 188 188 185 171 141 116 104 90 81 76 72 72 69 62 61
236 245 244 233 240 248 254 252 254 260 258 255 253 255 257 252 241 232 234 241 230 223 216 213 206 204 201 201 199 195 193 194 198 196 185 197 210 193 185 139 113 100 88 82 76 71 65 60 59
235 243 237 219 250 251 248 250 252 255 251 253 253 255 255 247 236 234 233 231 223 214 213 211 206 204 201 203 201 200 201 204 212 212 200 204 209 195 190 155 125 110 94 85 77 68 54 51 53
241 244 244 252 250 248 248 248 250 247 243 250 244 249 248 243 239 241 237 236 231 229 217 210 208 205 203 201 205 206 212 211 212 207 205 203 210 206 196 192 182 139 109 75 62 55 51 54 54
244 245 245 244 246 248 241 242 245 242 253 253 253 244 240 236 240 243 239 233 234 232 233 215 203 200 205 205 206 208 210 212 213 212 205 207 211 206 202 194 187 175 149 82 74 59 53 51 52
245 241 244 247 247 247 248 243 244 248 251 249 249 230 233 232 229 238 239 232 233 230 235 204 204 198 204 204 207 209 211 215 215 211 214 215 212 209 206 198 197 192 217 111 78 67 59 52 50
245 246 242 245 243 249 246 241 244 246 240 243 233 228 229 228 233 236 235 236 234 228 236 224 201 203 202 208 207 209 214 217 214 218 219 219 217 213 210 199 205 213 204 197 87 74 65 59 50
246 244 245 240 239 243 244 243 236 239 235 236 232 232 224 229 234 234 237 239 233 233 238 230 218 204 203 208 210 210 213 218 217 220 220 221 219 215 210 208 216 211 216 193 85 55 54 49 46
242 241 237 236 238 236 242 241 235 235 233 234 234 236 231 227 228 237 242 241 238 232 234 234 224 216 213 210 213 214 214 219 219 222 223 222 223 219 215 216 217 214 213 209 205 76 45 34 43
239 234 231 234 235 233 233 235 242 231 231 236 237 237 234 231 234 237 243 247 246 235 223 229 228 222 220 219 216 215 215 221 222 223 224 223 224 223 223 224 222 216 215 211 227 273 324 25 24
236 232 232 230 229 234 233 240 244 233 234 235 234 237 234 233 232 235 241 247 247 238 234 230 230 225 227 225 220 220 220 224 224 225 225 223 226 226 226 227 224 225 220 224 239 261 291 330 16
239 237 233 231 231 232 233 231 238 246 233 232 230 233 233 235 232 236 240 244 245 242 237 232 228 228 222 222 216 217 221 225 226 228 227 225 226 227 227 229 228 230 227 222 227 257 276 304 337
233 235 234 231 232 230 234 235 235 240 242 231 231 231 235 236 236 236 237 239 243 241 241 229 227 223 221 224 223 227 225 228 229 229 228 229 229 229 229 229 230 231 230 230 236 246 270 290 306
230 230 228 232 225 231 231 233 235 234 241 243 236 233 235 233 232 234 235 235 240 238 240 233 223 223 222 222 225 226 228 229 230 230 232 232 231 231 232 232 233 233 234 232 235 237 265 282 289
229 227 227 226 224 223 226 233 232 231 232 238 244 234 231 233 235 231 233 237 236 239 243 232 225 225 225 223 222 221 221 226 234 233 235 235 234 233 235 235 236 236 239 239 238 244 263 280 282
229 225 227 224 228 222 226 230 232 228 234 235 242 235 232 233 233 233 233 234 235 239 235 228 227 227 226 223 223 222 229 233 234 233 234 237 237 236 237 237 238 238 241 243 241 244 258 274 281
215 220 219 222 228 220 221 226 231 228 232 234 236 236 230 232 234 235 236 239 241 244 238 226 230 230 228 225 224 226 226 228 232 233 236 238 238 239 238 238 239 241 242 242 243 249 256 266 279
216 218 208 217 217 220 219 225 244 235 234 229 234 234 230 237 238 236 235 239 236 236 240 223 234 235 233 228 227 229 232 233 235 236 237 238 239 241 239 238 240 242 242 244 247 250 256 262 271
212 213 212 214 219 215 213 222 236 237 228 231 235 235 231 237 244 245 244 243 235 233 197 199 241 240 234 231 227 227 228 237 240 239 240 243 243 243 242 241 242 243 244 245 247 252 257 262 269
212 214 224 229 231 210 212 214 232 235 229 238 231 231 236 241 247 252 252 251 249 243 229 210 223 236 235 233 230 229 229 234 238 243 246 245 246 245 243 242 242 243 243 244 246 251 255 259 266
216 213 217 227 216 209 211 213 223 227 231 233 237 238 245 250 252 255 256 256 256 252 247 244 233 230 231 232 235 236 237 239 240 246 247 246 246 245 244 243 243 243 244 245 246 252 255 257 264
218 223 235 230 232 218 213 216 229 229 235 235 244 250 252 256 257 259 261 262 262 260 258 252 252 246 240 232 234 236 239 241 244 248 248 246 247 246 246 244 244 243 244 245 246 250 252 254 259
214 230 234 232 229 237 222 219 237 239 243 248 248 255 257 260 261 263 265 266 268 267 265 260 257 252 244 241 241 244 245 246 246 247 247 246 247 247 248 247 247 245 245 245 244 246 250 251 254